Prescott, AZ

5:21 AM MST on April 27, 2017 (GMT -0700)
Love

Weather History for KPRC - April, 2013

Change the Weather History Date:

Sunday, April 7, 2013

  Actual Average Record
Temperature  
Mean Temperature 56 °F 50 °F  
Max Temperature 72 °F 65 °F 86 °F (1989)
Min Temperature 40 °F 36 °F 25 °F (1969)
Degree Days  
Heating Degree Days 9    
Month to date heating degree days 67  
Since 1 July heating degree days 3577  
Cooling Degree Days 0    
Month to date cooling degree days 0  
Year to date cooling degree days 0  
Growing Degree Days 6 (Base 50)    
Moisture  
Dew Point 26 °F    
Average Humidity 35    
Maximum Humidity 57    
Minimum Humidity 16    
Precipitation  
Precipitation 0.00 in 0.02 in 0.26 in (1978)
Month to date precipitation 0.00 0.15  
Year to date precipitation 2.39 3.73  
Sea Level Pressure  
Sea Level Pressure 29.78 in    
Wind  
Wind Speed 7 mph (SSW)    
Max Wind Speed 21 mph    
Max Gust Speed 30 mph    
Visibility 10 miles    
Events      
T = Trace of Precipitation, MM = Missing Value Source: NWS Daily Summary

Daily Weather History Graph

Daily Weather History Graph

Search for Another Location

Airport or City:

Trip Planner

Search our weather history database for the weather conditions in past years. The results will help you decide how hot, cold, wet, or windy it might be!

Date:

Astronomy

Apr. 07, 2013 Rise Set
Actual Time 6:08 AM MST 6:55 PM MST
Civil Twilight 5:42 AM MST 7:21 PM MST
Nautical Twilight 5:12 AM MST 7:51 PM MST
Astronomical Twilight 4:41 AM MST 8:22 PM MST
Moon 4:21 AM MST (4/7) 4:36 PM MST (4/7)
Length of Visible Light 13h 38m
Length of Day
12h 47m
Waning Crescent, 7% of the Moon is Illuminated
Apr 7
Waning Crescent
Apr 10
New
Apr 18
First Quarter
Apr 25
Full
May 2
Last Quarter

Hourly Weather History & Observations

Time (MST) Temp. Windchill Dew Point Humidity Pressure Visibility Wind Dir Wind Speed Gust Speed Precip Events Conditions
12:53 AM 44.1 °F 40.1 °F 28.9 °F 55% 29.85 in 10.0 mi SSW 6.9 mph - N/A   Clear
1:53 AM 46.9 °F - 27.0 °F 46% 29.81 in 10.0 mi SSW 8.1 mph - N/A   Clear
2:53 AM 42.1 °F 37.7 °F 28.9 °F 60% 29.81 in 10.0 mi South 6.9 mph - N/A   Clear
3:53 AM 42.1 °F 37.7 °F 28.0 °F 58% 29.81 in 10.0 mi South 6.9 mph - N/A   Clear
4:53 AM 42.1 °F 37.7 °F 27.0 °F 55% 29.83 in 10.0 mi South 6.9 mph - N/A   Clear
5:53 AM 42.1 °F - 27.0 °F 55% 29.83 in 10.0 mi Calm Calm - N/A   Clear
6:53 AM 43.0 °F 41.3 °F 28.0 °F 56% 29.85 in 10.0 mi SSW 3.5 mph - N/A   Clear
7:53 AM 52.0 °F - 28.0 °F 40% 29.86 in 10.0 mi Calm Calm - N/A   Clear
8:53 AM 54.0 °F - 27.0 °F 35% 29.87 in 10.0 mi North - - N/A   Clear
9:53 AM 64.0 °F - 25.0 °F 23% 29.84 in 10.0 mi Calm Calm - N/A   Clear
10:53 AM 66.0 °F - 24.1 °F 20% 29.84 in 10.0 mi Calm Calm - N/A   Clear
11:53 AM 69.1 °F - 24.1 °F 18% 29.81 in 10.0 mi Calm Calm - N/A   Clear
12:53 PM 71.1 °F - 23.0 °F 16% 29.79 in 10.0 mi WSW 13.8 mph 20.7 mph N/A   Clear
1:53 PM 69.1 °F - 25.0 °F 19% 29.78 in 10.0 mi West 17.3 mph 24.2 mph N/A   Clear
2:53 PM 70.0 °F - 23.0 °F 17% 29.78 in 10.0 mi WSW 18.4 mph 23.0 mph N/A   Clear
3:53 PM 70.0 °F - 24.1 °F 18% 29.76 in 10.0 mi SW 16.1 mph - N/A   Partly Cloudy
4:53 PM 68.0 °F - 23.0 °F 18% 29.75 in 10.0 mi SW 15.0 mph 20.7 mph N/A   Partly Cloudy
5:53 PM 66.0 °F - 25.0 °F 21% 29.75 in 10.0 mi West 12.7 mph - N/A   Clear
6:53 PM 63.0 °F - 26.1 °F 25% 29.73 in 10.0 mi WSW 8.1 mph - N/A   Clear
7:53 PM 59.0 °F - 28.0 °F 31% 29.71 in 10.0 mi SSW 5.8 mph - N/A   Clear
8:53 PM 57.0 °F - 28.0 °F 33% 29.71 in 10.0 mi SSW 6.9 mph - N/A   Clear
9:53 PM 54.0 °F - 28.0 °F 37% 29.69 in 10.0 mi South 5.8 mph - N/A   Clear
10:53 PM 48.9 °F - 28.9 °F 46% 29.68 in 10.0 mi South 5.8 mph - N/A   Clear
11:53 PM 51.1 °F - 28.0 °F 41% 29.65 in 10.0 mi South 5.8 mph - N/A   Clear